Location: Fort Hays State University
(38.8712°N, 99.3432°W)
Time: 10:22:51
(UTC-05:00)

Cosmos 2279 Rocket - Visible Passes

Search period start: 07 July 2015 00:00
Search period end: 17 July 2015 00:00
Orbit: 965 x 979 km, 82.9° (Epoch: 06 July)

Date Brightness Start Highest point End Pass type
(mag) Time Alt. Az. Time Alt. Az. Time Alt. Az.
07 Jul 5.8 00:22:55 16° E 00:23:14 16° E 00:27:01 10° NE visible
07 Jul 4.0 02:07:30 67° WSW 02:07:58 69° W 02:14:13 10° N visible
08 Jul 5.1 00:47:08 30° E 00:47:19 30° E 00:52:41 10° NNE visible
08 Jul 4.7 02:31:43 37° W 02:32:30 38° WNW 02:38:16 10° N visible
09 Jul 4.2 01:11:20 54° E 01:11:29 54° E 01:17:35 10° NNE visible
09 Jul 5.5 02:55:55 21° W 02:57:16 22° WNW 03:01:51 10° NNW visible
09 Jul 6.0 23:50:56 12° E 23:51:13 12° E 23:53:53 10° NE visible
10 Jul 3.8 01:35:31 82° SW 01:35:48 85° W 01:42:06 10° N visible
10 Jul 6.1 03:20:06 10° W 03:22:15 12° WNW 03:24:07 10° NW visible
11 Jul 5.3 00:15:07 24° E 00:15:15 24° E 00:20:10 10° NE visible
11 Jul 4.5 01:59:42 46° W 02:00:16 48° WNW 02:06:16 10° N visible
12 Jul 4.5 00:39:17 43° E 00:39:24 43° E 00:45:16 10° NNE visible
12 Jul 5.3 02:23:52 26° W 02:24:56 27° WNW 02:30:04 10° NNW visible
13 Jul 3.8 01:03:26 77° ESE 01:03:39 78° E 01:09:55 10° N visible
13 Jul 6.0 02:48:01 14° W 02:49:50 15° WNW 02:53:04 10° NW visible
13 Jul 5.5 23:43:00 19° E 23:43:12 19° E 23:47:31 10° NE visible
14 Jul 4.2 01:27:35 58° W 01:28:03 59° W 01:34:13 10° N visible
15 Jul 4.8 00:07:08 34° E 00:07:18 35° E 00:12:54 10° NNE visible
15 Jul 5.1 01:51:42 32° W 01:52:38 33° WNW 01:58:10 10° NNW visible
16 Jul 4.0 00:31:14 62° ESE 00:31:31 63° E 00:37:42 10° NNE visible
16 Jul 5.8 02:15:49 17° W 02:17:27 19° WNW 02:21:33 10° NNW visible
16 Jul 5.7 23:10:46 15° E 23:11:10 15° E 23:14:40 10° NE visible
